Погода в Чантхабури

Таиланд     12°38′05″N   102°05′49″E
темп.,
°C
ветер,
м/с
пор.,
м/с
влажн.,
%
обл.,
%
осадки,
мм/ч
давл.,
гПа
погр.,
м
16 октября, сб
сб1601:00+24в1197100 4.8 100718
04:00+23в119798 0.3 100717
07:00+24в1195100 0.4 100951
10:00+30ю236478 0.1 10101060
13:00+32юз345534 0.1 10071402
16:00+30юз236155 0.0 10061006
19:00+25ююз1186100 0.0 100926
22:00+24ссз0090100 0.6 101113
17 октября, вс
вс1701:00+24ссв0095100 2.9 101019
04:00+23ссв2397100 2.2 1009103
07:00+23ссв1399100 6.8 1010122
10:00+24ссв1497100 2.8 1012230
13:00+23ссв1397100 3.8 1010242
16:00+22св1498100 3.6 1010259
19:00+21ссв1398100 7.3 1011149
22:00+20с1398100 0.7 1012138
18 октября, пн
пн1801:00+20с1398100 1.4 1011141
04:00+20с1398100 1.0 1010141
07:00+20с1297100 1.5 1012105
10:00+24св1281100 0.0 1013643
13:00+24ссв2276100 0.1 1011647
16:00+25с2277100 0.1 1010447
19:00+21ссв129186 0.1 101260
22:00+21св1192100 0.0 101441
19 октября, вт
вт1901:00+20с119479 0.0 101331
04:00+20ссв119357 0.0 101223
07:00+22с118854 0.0 101475
10:00+29в016342 0.0 1015927
13:00+30юз226381 0.1 10121153
16:00+29юз216831 0.2 1010824
19:00+24ююз01915 0.2 101217
22:00+23всв00949 0.0 101416
20 октября, ср
ср2001:00+23с1196100 0.0 101316
04:00+23с1196100 0.0 101230
07:00+24с129087 0.0 101495
10:00+31с116498 0.0 1015872
13:00+33сз115687 0.1 10111320
16:00+29ююз2480100 1.4 1009317
19:00+25ю119599 3.1 101226
22:00+24в1196100 0.3 101313